Flag for Germany Weather past 2 weeks in Biberach an der Riss, Baden-Württemberg, Germany

Now
61 °F

Cool.


Feels Like: 61 °F
Forecast: 56 / 66 °F
Wind: 7 mph from Southwest

Location: Laupheim Airport

Current Time: Sep 20, 2014 at 2:48:11 AM

Latest Report: Sep 20, 2014 at 1:20 AM


Visibility: 3 mi

Pressure: 30.04 "Hg

Humidity: 94%

Dew point: 59 °F

Location of Biberach an der RissLocation

Historic Weather in Biberach an der Riss — Graph

°F

Biberach an der Riss temperature yesterday

Maximum temperature yesterday: 75 °F (at 2:45 PM)
Minimum temperature yesterday: 54 °F (at 3:20 AM)
Average temperature yesterday: 63 °F

Past Weeks' High & Low Weather Summary

 TemperatureHumidityPressure
High77 °F (Sep 8, 2:20 PM)100% (Sep 5, 1:20 AM)30.15 "Hg (Sep 5, 1:20 AM)
Low46 °F (Sep 11, 6:20 AM)50% (Sep 7, 3:20 PM)29.92 "Hg (Sep 6, 3:20 PM)
Average60 °F88%30.01 "Hg
* Reported Sep 5 1:20 AM — Sep 20 1:20 AM, Biberach an der Riss, Weather by CustomWeather, © 2014

Note: Actual official high and low records may vary slightly from our data, if they occured in-between our weather recording intervals... More about our weather records

Advertising

Biberach an der Riss weather history for previous 24 hours

 ConditionsComfort  
Time TempWeatherWind HumidityBarometerVisibility
1:20 AM
Sep 20
61 °FCool.7 mph94%30.04 "Hg2 mi
12:20 AM61 °FCool.1 mph94%30.04 "Hg2 mi
11:20 PM
Sep 19
59 °FCool.1 mph100%30.04 "Hg2 mi
10:20 PM61 °FCool.2 mph94%30.01 "Hg2 mi
9:20 PM63 °FMild.3 mph88%30.01 "Hg2 mi
8:20 PM64 °FMild.2 mph88%30.01 "Hg2 mi
7:20 PM68 °FPartly sunny.3 mph73%30.01 "HgN/A
6:20 PM70 °FPartly sunny.3 mph69%29.98 "HgN/A
5:20 PM72 °FPartly sunny.6 mph65%29.98 "HgN/A
4:20 PM73 °FBroken clouds.7 mph57%29.98 "HgN/A
3:20 PM73 °FBroken clouds.5 mph61%29.98 "HgN/A
2:45 PM75 °FBroken clouds.3 mph61%29.98 "HgN/A
2:20 PM73 °FBroken clouds.3 mph61%29.98 "HgN/A
1:20 PM72 °FBroken clouds.2 mph69%29.98 "HgN/A
12:20 PM68 °FBroken clouds.3 mph78%30.01 "HgN/A
11:20 AM66 °FPartly sunny.2 mph83%30.01 "HgN/A
10:20 AM63 °FPartly sunny.6 mph88%30.01 "HgN/A
8:20 AM57 °FPartly sunny.5 mph100%29.98 "HgN/A
7:20 AM57 °FPartly cloudy.5 mph94%29.98 "HgN/A
6:20 AM55 °FPartly cloudy.2 mph100%29.95 "Hg6 mi
5:20 AM55 °FFog.3 mph94%29.98 "Hg2 mi
4:49 AM54 °FFog.8 mph100%29.98 "Hg1 mi
4:20 AM54 °FFog.2 mph100%29.95 "Hg0 mi
3:20 AM54 °FFog.3 mph100%29.95 "Hg0 mi
2:20 AM55 °FFog.2 mph100%29.95 "Hg0 mi
Weather by CustomWeather, © 2014

See weather overviewHow to use our weather pages